Date,TemperatureHighF,TemperatureAvgF,TemperatureLowF,DewpointHighF,DewpointAvgF,DewpointLowF,HumidityHigh,HumidityAvg,HumidityLow,PressureMaxIn,PressureMinIn,WindSpeedMaxMPH,WindSpeedAvgMPH,GustSpeedMaxMPH,PrecipitationSumIn
2013-4-1,38.5,30.5,24.6,27.3,19.0,13.3,99,65,39,30.02,29.72,18,5,0,0.00
2013-4-2,43.3,30.3,14.9,26.0,17.6,13.5,99,64,32,30.11,30.02,14,4,0,0.00
2013-4-4,57.7,45.0,28.9,41.8,37.2,25.0,99,77,46,30.03,29.78,8,3,0,0.00
2013-4-5,50.4,39.0,23.2,38.5,30.2,22.9,99,74,42,30.09,29.87,12,4,0,0.00
2013-4-6,63.7,48.7,33.6,54.7,40.0,25.6,99,75,46,30.00,29.38,17,8,0,0.18
2013-4-7,57.4,45.1,34.5,52.0,41.8,34.2,99,90,56,29.81,29.39,16,6,0,0.00
2013-4-8,53.6,43.1,34.5,53.3,42.8,34.2,99,99,99,29.84,29.41,11,5,0,0.60
2013-4-9,41.4,39.0,37.2,41.1,38.7,36.9,99,99,99,29.86,29.72,14,8,0,2.06
2013-4-10,39.4,36.8,34.0,39.1,36.5,33.7,99,99,99,29.89,29.68,17,9,0,1.05
2013-4-11,40.5,37.4,35.1,40.2,37.1,34.8,99,99,99,29.76,29.39,25,12,0,0.53
2013-4-12,42.8,38.6,36.0,42.5,38.3,35.7,99,99,99,29.55,29.35,14,6,0,0.08
2013-4-13,39.7,35.6,26.8,35.5,32.1,26.6,99,88,72,29.82,29.63,12,6,0,0.00
2013-4-14,53.4,38.7,27.5,53.1,38.4,27.3,99,99,95,29.86,29.45,20,8,0,0.09
2013-4-15,65.3,52.0,40.8,60.7,49.7,39.1,99,93,53,29.81,29.44,23,7,0,0.66
2013-4-16,56.1,43.7,32.5,46.1,39.3,32.3,99,87,51,30.14,29.80,10,3,0,0.00
2013-4-17,43.9,41.1,37.8,43.6,40.7,37.5,99,99,92,30.16,29.69,21,8,0,0.81
2013-4-18,68.0,51.3,38.8,67.7,51.0,38.5,99,99,99,29.68,29.19,20,5,0,1.43
2013-4-19,41.2,36.1,30.4,38.9,33.1,26.9,99,90,60,29.73,29.21,20,11,0,0.01
2013-4-20,47.8,34.9,23.9,29.7,23.2,15.5,99,66,27,30.26,29.74,14,3,0,0.00
2013-4-21,51.6,40.4,27.1,34.0,29.0,24.4,99,67,42,30.36,30.14,14,5,0,0.00
2013-4-22,68.9,53.5,38.8,45.9,38.0,33.7,94,58,32,30.14,29.86,11,5,0,0.00
2013-4-23,55.0,45.1,37.9,54.7,44.0,37.6,99,97,68,29.87,29.74,13,3,0,0.48
2013-4-24,54.0,42.8,32.0,37.5,31.5,23.7,99,69,31,29.88,29.79,13,5,0,0.00
2013-4-25,54.0,43.7,30.0,42.7,35.4,29.8,99,76,44,30.14,29.83,12,6,0,0.00
2013-4-26,68.9,48.4,29.5,50.7,38.7,29.3,99,73,47,30.15,30.01,16,5,0,0.00
2013-4-27,70.5,62.1,52.0,55.8,47.7,43.6,84,60,42,30.03,29.85,9,4,0,0.00
2013-4-28,71.2,58.0,47.3,60.7,51.8,44.3,99,83,51,29.85,29.63,9,2,0,0.00
2013-4-29,71.8,61.2,51.3,69.0,58.3,51.0,99,92,62,29.72,29.61,11,3,0,0.03
2013-4-30,86.7,86.1,85.5,54.9,54.0,51.8,35,34,31,29.57,29.57,14,10,0,0.00